VLG3VC LEMH-LEBL

Flight info

Callsign VLG3VC
Flight time 0h 30m
Altitude 18000
Route LUNIK Q255 OSTUR
Aircraft A320/M-SDE3FGHIRWY/LB1

Departure

Time 2026-04-30 22:20
Airport Menorca Airport (LEMH)

Arrival

Time 2026-04-30 22:51
Airport Josep Tarradellas Barcelona-El Prat Airport (LEBL)
Time Latitude Longitude Altitude Speed Heading
2026-04-30 22:04 39.86531 4.22420 302 ft 0 kts 103°
2026-04-30 22:09 39.86531 4.22419 302 ft 0 kts 103°
2026-04-30 22:13 39.86532 4.22417 302 ft 2 kts 103°
2026-04-30 22:13 39.86536 4.22394 302 ft 3 kts 121°
2026-04-30 22:13 39.86548 4.22377 302 ft 3 kts 130°
2026-04-30 22:13 39.86558 4.22360 301 ft 3 kts 141°
2026-04-30 22:14 39.86572 4.22348 301 ft 2 kts 152°
2026-04-30 22:14 39.86588 4.22339 303 ft 3 kts 179°
2026-04-30 22:14 39.86590 4.22339 303 ft 0 kts 181°
2026-04-30 22:14 39.86584 4.22338 303 ft 3 kts 181°
2026-04-30 22:15 39.86553 4.22337 301 ft 6 kts 186°
2026-04-30 22:15 39.86499 4.22320 301 ft 10 kts 193°
2026-04-30 22:15 39.86423 4.22311 301 ft 12 kts 187°
2026-04-30 22:15 39.86377 4.22302 302 ft 5 kts 189°
2026-04-30 22:16 39.86334 4.22294 300 ft 8 kts 197°
2026-04-30 22:16 39.86284 4.22278 301 ft 0 kts 195°
2026-04-30 22:17 39.86212 4.22262 300 ft 8 kts 208°
2026-04-30 22:17 39.86186 4.22192 298 ft 10 kts 271°
2026-04-30 22:17 39.86100 4.22072 297 ft 14 kts 191°
2026-04-30 22:18 39.85997 4.22049 296 ft 17 kts 188°
2026-04-30 22:18 39.85725 4.21997 296 ft 23 kts 193°
2026-04-30 22:19 39.85365 4.21921 292 ft 29 kts 191°
2026-04-30 22:19 39.85168 4.21878 288 ft 19 kts 187°
2026-04-30 22:19 39.85177 4.21653 287 ft 16 kts 347°
2026-04-30 22:20 39.85452 4.21704 292 ft 74 kts 11°
2026-04-30 22:20 39.87191 4.22061 518 ft 155 kts 13°
2026-04-30 22:20 39.88245 4.22303 1218 ft 154 kts 13°
2026-04-30 22:21 39.89305 4.22520 1802 ft 159 kts 13°
2026-04-30 22:21 39.90459 4.22756 1956 ft 187 kts 13°
2026-04-30 22:21 39.91835 4.23046 2229 ft 212 kts 12°
2026-04-30 22:21 39.93358 4.23363 2624 ft 232 kts 12°
2026-04-30 22:22 39.95051 4.23504 3075 ft 259 kts 351°
2026-04-30 22:22 39.96744 4.22556 3840 ft 272 kts 326°
2026-04-30 22:22 39.98092 4.20792 4773 ft 278 kts 308°
2026-04-30 22:22 39.99285 4.18788 5705 ft 281 kts 306°
2026-04-30 22:23 40.00458 4.16740 6649 ft 283 kts 306°
2026-04-30 22:23 40.01611 4.14695 7541 ft 284 kts 305°
2026-04-30 22:23 40.02784 4.12603 8454 ft 286 kts 305°
2026-04-30 22:23 40.03961 4.10506 9368 ft 288 kts 305°
2026-04-30 22:24 40.05151 4.08392 10212 ft 292 kts 305°
2026-04-30 22:24 40.06401 4.06178 10516 ft 314 kts 305°
2026-04-30 22:24 40.07738 4.03811 10855 ft 331 kts 305°
2026-04-30 22:24 40.09121 4.01365 11519 ft 337 kts 305°
2026-04-30 22:25 40.10522 3.98890 12265 ft 340 kts 305°
2026-04-30 22:25 40.11932 3.96402 13037 ft 342 kts 305°
2026-04-30 22:25 40.13333 3.93930 13798 ft 344 kts 304°
2026-04-30 22:25 40.14762 3.91407 14490 ft 346 kts 304°
2026-04-30 22:26 40.17644 3.86307 15773 ft 352 kts 304°
2026-04-30 22:26 40.19102 3.83727 16401 ft 354 kts 304°
2026-04-30 22:26 40.20573 3.81120 17046 ft 357 kts 304°
2026-04-30 22:27 40.21963 3.78648 17647 ft 360 kts 304°
2026-04-30 22:27 40.23451 3.75998 18039 ft 362 kts 304°
2026-04-30 22:27 40.26466 3.70618 18134 ft 371 kts 304°
2026-04-30 22:28 40.29505 3.65178 18135 ft 373 kts 304°
2026-04-30 22:28 40.31035 3.62441 18136 ft 373 kts 304°
2026-04-30 22:29 40.35636 3.54211 18138 ft 373 kts 304°
2026-04-30 22:29 40.37168 3.51467 18136 ft 374 kts 304°
2026-04-30 22:30 40.43284 3.40481 18136 ft 374 kts 304°
2026-04-30 22:31 40.48448 3.32739 18139 ft 377 kts 310°
2026-04-30 22:32 40.53704 3.25108 18141 ft 378 kts 310°
2026-04-30 22:32 40.57220 3.19975 18145 ft 378 kts 310°
2026-04-30 22:33 40.62507 3.12255 18150 ft 379 kts 310°
2026-04-30 22:33 40.66033 3.07100 18153 ft 379 kts 310°
2026-04-30 22:34 40.71303 2.99378 18157 ft 380 kts 310°
2026-04-30 22:35 40.74827 2.94186 18163 ft 380 kts 310°
2026-04-30 22:36 40.80878 2.83039 17883 ft 357 kts 298°
2026-04-30 22:36 40.82105 2.80225 17503 ft 351 kts 298°
2026-04-30 22:37 40.85691 2.71978 16110 ft 343 kts 298°
2026-04-30 22:37 40.86876 2.69254 15662 ft 341 kts 298°
2026-04-30 22:37 40.89229 2.63848 14763 ft 337 kts 298°
2026-04-30 22:38 40.91547 2.58492 13887 ft 334 kts 298°
2026-04-30 22:38 40.93839 2.53189 12911 ft 331 kts 298°
2026-04-30 22:39 40.94965 2.50584 12439 ft 330 kts 298°
2026-04-30 22:39 40.98367 2.42715 11080 ft 327 kts 298°
2026-04-30 22:40 41.01525 2.35380 10481 ft 303 kts 297°
2026-04-30 22:41 41.04352 2.28021 9436 ft 298 kts 294°
2026-04-30 22:41 41.06172 2.23108 8721 ft 296 kts 294°
2026-04-30 22:42 41.09735 2.13371 7345 ft 291 kts 293°
2026-04-30 22:43 41.11464 2.08532 6674 ft 289 kts 294°
2026-04-30 22:43 41.13176 2.03751 5967 ft 288 kts 294°
2026-04-30 22:44 41.14897 1.98942 4667 ft 290 kts 294°
2026-04-30 22:45 41.17916 1.90489 4092 ft 216 kts 295°
2026-04-30 22:45 41.19418 1.87504 3859 ft 188 kts 329°
2026-04-30 22:46 41.21893 1.87221 3303 ft 176 kts 28°
2026-04-30 22:47 41.24276 1.92076 2611 ft 154 kts 68°
2026-04-30 22:47 41.25096 1.94495 2341 ft 137 kts 66°
2026-04-30 22:48 41.25931 1.96714 1988 ft 132 kts 65°
2026-04-30 22:49 41.27095 2.00029 1517 ft 133 kts 66°
2026-04-30 22:49 41.28211 2.03391 799 ft 132 kts 65°
2026-04-30 22:50 41.29657 2.07679 22 ft 119 kts 66°
2026-04-30 22:51 41.30059 2.08871 19 ft 31 kts 63°
2026-04-30 22:51 41.30242 2.09365 18 ft 28 kts 52°
2026-04-30 22:52 41.30336 2.09485 17 ft 29 kts 29°
2026-04-30 22:52 41.30504 2.09487 20 ft 11 kts 296°
2026-04-30 22:53 41.30430 2.09242 20 ft 14 kts 245°
2026-04-30 22:53 41.30351 2.09004 19 ft 19 kts 246°
2026-04-30 22:53 41.30296 2.08829 20 ft 22 kts 247°
2026-04-30 22:54 41.30155 2.08435 20 ft 26 kts 246°
2026-04-30 22:55 41.30075 2.07965 17 ft 12 kts 341°
2026-04-30 22:55 41.30214 2.07914 21 ft 9 kts 24°
2026-04-30 22:56 41.30237 2.07927 22 ft 0 kts 24°